Home > Weather > Fremont > Past weeks

Flag for USA Weather for the Past 2 Weeks in Fremont, California, USA

Now
60 °F

Clear.


Feels Like: 60 °F
Forecast: 51 / 70 °F
Wind: 3 mph from Northwest

Location: Moffett Field

Current Time: Apr 28, 2016 at 9:55:57 PM

Latest Report: Apr 28, 2016 at 8:56 PM


Visibility: 10 mi

Pressure: 29.97 "Hg

Humidity: 53%

Dew Point: 43 °F

Location of FremontLocation

Historic Weather in Fremont — Graph

°F

Fremont Temperature Yesterday

Maximum temperature yesterday: 62 °F (at 3:56 PM)
Minimum temperature yesterday: 50 °F (at 3:56 AM)
Average temperature yesterday: 57 °F

High & Low Weather Summary for the Past Weeks

 TemperatureHumidityPressure
High86 °F (Apr 18, 2:56 PM)87% (Apr 22, 6:56 AM)30.22 "Hg (Apr 22, 6:56 AM)
Low46 °F (Apr 26, 4:56 AM)19% (Apr 19, 1:56 PM)29.85 "Hg (Apr 22, 5:56 AM)
Average61 °F56%30.03 "Hg
* Reported Apr 13 8:56 PM — Apr 28 8:56 PM, Fremont, Weather by CustomWeather, © 2016

Note: Actual official high and low records may vary slightly from our data, if they occured in-between our weather recording intervals... More about our weather records

Advertising

Fremont Weather History for the Previous 24 Hours

Scroll right to see more
 ConditionsComfort  
Time TempWeatherWind HumidityBarometerVisibility
8:56 PM
Thu, Apr 28
60 °FClear.3 mph53%29.97 "Hg10 mi
7:56 PM61 °FSunny.5 mph52%29.95 "Hg10 mi
6:56 PM66 °FSunny.8 mph45%29.94 "Hg10 mi
5:56 PM68 °FSunny.12 mph45%29.93 "Hg10 mi
4:56 PM71 °FSunny.13 mph41%29.91 "Hg10 mi
3:56 PM72 °FSunny.18 mph46%29.91 "Hg10 mi
2:56 PM71 °FSunny.17 mph51%29.92 "Hg10 mi
1:56 PM70 °FSunny.14 mph47%29.92 "Hg10 mi
12:56 PM69 °FSunny.12 mph49%29.93 "Hg10 mi
11:56 AM66 °FSunny.5 mph54%29.94 "Hg10 mi
10:56 AM63 °FSunny.3 mph56%29.94 "Hg10 mi
9:56 AM59 °FSunny.5 mph62%29.95 "Hg10 mi
8:56 AM58 °FSunny.8 mph65%29.95 "Hg10 mi
7:56 AM54 °FSunny.5 mph72%29.94 "Hg10 mi
6:56 AM50 °FClear.No wind77%29.93 "Hg10 mi
5:56 AM51 °FClear.5 mph74%29.91 "Hg10 mi
4:56 AM51 °FClear.3 mph74%29.90 "Hg10 mi
3:56 AM51 °FClear.5 mph74%29.90 "Hg10 mi
2:56 AM51 °FClear.5 mph77%29.90 "Hg10 mi
1:56 AM52 °FClear.6 mph75%29.90 "Hg10 mi
12:56 AM53 °FClear.8 mph72%29.90 "Hg10 mi
11:56 PM
Wed, Apr 27
53 °FClear.8 mph72%29.91 "Hg10 mi
10:56 PM54 °FClear.7 mph72%29.91 "Hg10 mi
9:56 PM55 °FClear.10 mph67%29.91 "Hg10 mi
Weather by CustomWeather, © 2016

See weather overviewHow to use our weather pages